Time,TemperatureF,DewpointF,PressureIn,WindDirection,WindDirectionDegrees,WindSpeedMPH,WindSpeedGustMPH,Humidity,HourlyPrecipIn,Conditions,Clouds,dailyrainin,SoftwareType,DateUTC
2013-03-11 00:03:00,58.0,54.0,30.14,SSE,153,0.0,1.0,86,0.00,,,0.00,,2013-03-11 04:03:00,
2013-03-11 00:12:00,58.0,54.0,30.14,SSE,153,0.0,1.0,86,0.00,,,0.00,,2013-03-11 04:12:00,
2013-03-11 00:22:00,57.0,53.0,30.13,East,96,0.0,0.0,86,0.00,,,0.00,,2013-03-11 04:22:00,
2013-03-11 00:33:00,57.0,53.0,30.14,East,93,0.0,0.0,88,0.00,,,0.00,,2013-03-11 04:33:00,
2013-03-11 00:43:00,57.0,53.0,30.14,East,93,0.0,0.0,88,0.00,,,0.00,,2013-03-11 04:43:00,
2013-03-11 00:53:00,56.0,53.0,30.13,East,94,0.0,0.0,89,0.00,,,0.00,,2013-03-11 04:53:00,
2013-03-11 01:03:00,56.0,53.0,30.13,East,95,0.0,1.0,91,0.00,,,0.00,,2013-03-11 05:03:00,
2013-03-11 01:12:00,56.0,53.0,30.13,East,95,0.0,1.0,91,0.00,,,0.00,,2013-03-11 05:12:00,
2013-03-11 01:22:00,56.0,54.0,30.11,East,95,0.0,2.0,92,0.00,,,0.00,,2013-03-11 05:22:00,
2013-03-11 01:32:00,57.0,54.0,30.11,ENE,78,0.0,2.0,91,0.00,,,0.00,,2013-03-11 05:32:00,
2013-03-11 01:43:00,57.0,54.0,30.11,ENE,78,0.0,2.0,91,0.00,,,0.00,,2013-03-11 05:43:00,
2013-03-11 01:52:00,58.0,55.0,30.11,ESE,102,0.0,4.0,89,0.00,,,0.00,,2013-03-11 05:52:00,
2013-03-11 02:02:00,59.0,55.0,30.11,SSE,153,0.0,5.0,87,0.00,,,0.00,,2013-03-11 06:02:00,
2013-03-11 02:12:00,59.0,55.0,30.11,SSE,153,0.0,5.0,87,0.00,,,0.00,,2013-03-11 06:12:00,
2013-03-11 02:22:00,59.0,55.0,30.11,SSE,162,0.0,3.0,87,0.00,,,0.00,,2013-03-11 06:22:00,
2013-03-11 02:32:00,59.0,55.0,30.11,ESE,115,0.0,1.0,87,0.00,,,0.00,,2013-03-11 06:32:00,
2013-03-11 02:42:00,59.0,55.0,30.11,ESE,115,0.0,1.0,87,0.00,,,0.00,,2013-03-11 06:42:00,
2013-03-11 02:53:00,58.0,54.0,30.10,SE,130,0.0,0.0,88,0.00,,,0.00,,2013-03-11 06:53:00,
2013-03-11 03:03:00,56.0,53.0,30.10,SE,129,0.0,0.0,89,0.00,,,0.00,,2013-03-11 07:03:00,
2013-03-11 03:12:00,56.0,53.0,30.10,SE,129,0.0,0.0,89,0.00,,,0.00,,2013-03-11 07:12:00,
2013-03-11 03:22:00,55.0,52.0,30.10,SE,129,0.0,0.0,90,0.00,,,0.00,,2013-03-11 07:22:00,
2013-03-11 03:32:00,54.0,52.0,30.09,SE,129,0.0,0.0,92,0.00,,,0.00,,2013-03-11 07:32:00,
2013-03-11 03:42:00,54.0,52.0,30.09,SE,129,0.0,0.0,92,0.00,,,0.00,,2013-03-11 07:42:00,
2013-03-11 03:52:00,53.0,51.0,30.09,SE,128,0.0,0.0,93,0.00,,,0.00,,2013-03-11 07:52:00,
2013-03-11 04:02:00,53.0,51.0,30.08,SE,129,0.0,0.0,94,0.00,,,0.00,,2013-03-11 08:02:00,
2013-03-11 04:12:00,53.0,51.0,30.08,SE,129,0.0,0.0,94,0.00,,,0.00,,2013-03-11 08:12:00,
2013-03-11 04:22:00,52.0,51.0,30.07,SE,128,0.0,0.0,95,0.00,,,0.00,,2013-03-11 08:22:00,
2013-03-11 04:32:00,52.0,51.0,30.06,SE,129,0.0,0.0,95,0.00,,,0.00,,2013-03-11 08:32:00,
2013-03-11 04:42:00,52.0,51.0,30.06,SE,129,0.0,0.0,95,0.00,,,0.00,,2013-03-11 08:42:00,
2013-03-11 04:52:00,52.0,51.0,30.05,SE,128,0.0,0.0,96,0.00,,,0.00,,2013-03-11 08:52:00,
2013-03-11 05:02:00,52.0,51.0,30.04,SE,128,0.0,0.0,96,0.00,,,0.00,,2013-03-11 09:02:00,
2013-03-11 05:12:00,52.0,51.0,30.04,SE,128,0.0,0.0,96,0.00,,,0.00,,2013-03-11 09:12:00,
2013-03-11 05:23:00,52.0,51.0,30.04,SE,128,0.0,0.0,96,0.00,,,0.00,,2013-03-11 09:23:00,
2013-03-11 05:32:00,52.0,51.0,30.04,SE,129,0.0,0.0,97,0.00,,,0.00,,2013-03-11 09:32:00,
2013-03-11 05:42:00,52.0,51.0,30.04,SE,129,0.0,0.0,97,0.00,,,0.00,,2013-03-11 09:42:00,
2013-03-11 05:52:00,51.0,50.0,30.04,SE,128,0.0,0.0,97,0.00,,,0.00,,2013-03-11 09:52:00,
2013-03-11 06:02:00,51.0,50.0,30.04,SE,128,0.0,0.0,97,0.00,,,0.00,,2013-03-11 10:02:00,
2013-03-11 06:12:00,51.0,50.0,30.04,SE,128,0.0,0.0,97,0.00,,,0.00,,2013-03-11 10:12:00,
2013-03-11 06:22:00,51.0,50.0,30.04,SE,128,0.0,0.0,97,0.00,,,0.00,,2013-03-11 10:22:00,
2013-03-11 06:32:00,51.0,50.0,30.04,SE,128,0.0,0.0,97,0.00,,,0.00,,2013-03-11 10:32:00,
2013-03-11 06:42:00,51.0,50.0,30.04,SE,128,0.0,0.0,97,0.00,,,0.00,,2013-03-11 10:42:00,
2013-03-11 06:53:00,50.0,49.0,30.05,SE,129,0.0,0.0,97,0.00,,,0.00,,2013-03-11 10:53:00,
2013-03-11 07:02:00,50.0,49.0,30.04,SE,129,0.0,0.0,97,0.00,,,0.00,,2013-03-11 11:02:00,
2013-03-11 07:12:00,50.0,49.0,30.04,SE,129,0.0,0.0,97,0.00,,,0.00,,2013-03-11 11:12:00,
2013-03-11 07:22:00,50.0,49.0,30.04,SE,128,0.0,0.0,98,0.00,,,0.00,,2013-03-11 11:22:00,
2013-03-11 07:33:00,50.0,49.0,30.04,SE,128,0.0,0.0,98,0.00,,,0.00,,2013-03-11 11:33:00,
2013-03-11 07:42:00,50.0,49.0,30.04,SE,128,0.0,0.0,98,0.00,,,0.00,,2013-03-11 11:42:00,
2013-03-11 07:53:00,49.0,48.0,30.04,SE,129,0.0,0.0,98,0.00,,,0.00,,2013-03-11 11:53:00,
2013-03-11 08:02:00,49.0,48.0,30.04,SE,128,0.0,0.0,98,0.00,,,0.00,,2013-03-11 12:02:00,
2013-03-11 08:12:00,49.0,48.0,30.04,SE,128,0.0,0.0,98,0.00,,,0.00,,2013-03-11 12:12:00,
2013-03-11 08:22:00,50.0,49.0,30.04,SE,129,0.0,0.0,98,0.00,,,0.00,,2013-03-11 12:22:00,
2013-03-11 08:32:00,51.0,50.0,30.05,SE,129,0.0,0.0,98,0.00,,,0.00,,2013-03-11 12:32:00,
2013-03-11 08:43:00,51.0,50.0,30.05,SE,129,0.0,0.0,98,0.00,,,0.00,,2013-03-11 12:43:00,
2013-03-11 08:53:00,53.0,52.0,30.06,SE,130,0.0,0.0,98,0.00,,,0.00,,2013-03-11 12:53:00,
2013-03-11 09:02:00,56.0,56.0,30.05,SE,129,0.0,0.0,99,0.00,,,0.00,,2013-03-11 13:02:00,
2013-03-11 09:12:00,56.0,56.0,30.05,SE,129,0.0,0.0,99,0.00,,,0.00,,2013-03-11 13:12:00,
2013-03-11 09:22:00,59.0,59.0,30.05,SSE,150,0.0,2.0,99,0.00,,,0.00,,2013-03-11 13:22:00,
2013-03-11 09:32:00,61.0,59.0,30.06,SW,226,1.0,3.0,92,0.00,,,0.00,,2013-03-11 13:32:00,
2013-03-11 09:42:00,61.0,59.0,30.06,SW,226,1.0,3.0,92,0.00,,,0.00,,2013-03-11 13:42:00,
2013-03-11 09:53:00,64.0,59.0,30.05,SSW,209,1.0,3.0,83,0.00,,,0.00,,2013-03-11 13:53:00,
2013-03-11 10:02:00,66.0,58.0,30.05,West,277,3.0,7.0,76,0.00,,,0.00,,2013-03-11 14:02:00,
2013-03-11 10:12:00,66.0,58.0,30.05,West,277,3.0,7.0,76,0.00,,,0.00,,2013-03-11 14:12:00,
2013-03-11 10:22:00,67.0,58.0,30.06,SW,217,3.0,8.0,72,0.00,,,0.00,,2013-03-11 14:22:00,
2013-03-11 10:33:00,68.0,57.0,30.06,SSW,198,6.0,12.0,68,0.00,,,0.00,,2013-03-11 14:33:00,
2013-03-11 10:42:00,68.0,57.0,30.06,SSW,198,6.0,12.0,68,0.00,,,0.00,,2013-03-11 14:42:00,
2013-03-11 10:53:00,68.0,57.0,30.06,West,269,3.0,12.0,69,0.00,,,0.00,,2013-03-11 14:53:00,
2013-03-11 11:02:00,69.0,58.0,30.06,SSW,192,2.0,5.0,67,0.00,,,0.00,,2013-03-11 15:02:00,
2013-03-11 11:13:00,69.0,58.0,30.06,SSW,192,2.0,5.0,67,0.00,,,0.00,,2013-03-11 15:13:00,
2013-03-11 11:23:00,70.0,58.0,30.06,SSE,161,2.0,11.0,66,0.00,,,0.00,,2013-03-11 15:23:00,
2013-03-11 11:32:00,70.0,58.0,30.06,ESE,109,2.0,7.0,65,0.00,,,0.00,,2013-03-11 15:32:00,
2013-03-11 11:42:00,70.0,58.0,30.06,ESE,109,2.0,7.0,65,0.00,,,0.00,,2013-03-11 15:42:00,
2013-03-11 11:53:00,71.0,58.0,30.06,ESE,109,3.0,8.0,63,0.00,,,0.00,,2013-03-11 15:53:00,
2013-03-11 12:02:00,71.0,58.0,30.06,SSW,205,2.0,8.0,63,0.00,,,0.00,,2013-03-11 16:02:00,
2013-03-11 12:13:00,71.0,58.0,30.06,SSW,205,2.0,8.0,63,0.00,,,0.00,,2013-03-11 16:13:00,
2013-03-11 12:22:00,71.0,57.0,30.06,SW,226,4.0,9.0,61,0.00,,,0.00,,2013-03-11 16:22:00,
2013-03-11 12:32:00,73.0,58.0,30.04,SSW,204,5.0,10.0,59,0.00,,,0.00,,2013-03-11 16:32:00,
2013-03-11 12:43:00,73.0,58.0,30.04,SSW,204,5.0,10.0,59,0.00,,,0.00,,2013-03-11 16:43:00,
2013-03-11 12:52:00,73.0,58.0,30.04,SW,217,3.0,7.0,59,0.00,,,0.00,,2013-03-11 16:52:00,
2013-03-11 13:02:00,74.0,58.0,30.04,WSW,239,2.0,10.0,58,0.00,,,0.00,,2013-03-11 17:02:00,
2013-03-11 13:16:00,74.0,58.0,30.04,WSW,239,2.0,10.0,58,0.00,,,0.00,,2013-03-11 17:16:00,
2013-03-11 13:28:00,74.0,57.0,30.04,WSW,248,4.0,11.0,56,0.00,,,0.00,,2013-03-11 17:28:00,
2013-03-11 13:36:00,74.0,57.0,30.04,WSW,248,4.0,11.0,56,0.00,,,0.00,,2013-03-11 17:36:00,
2013-03-11 13:42:00,74.0,57.0,30.04,WSW,248,4.0,11.0,56,0.00,,,0.00,,2013-03-11 17:42:00,
2013-03-11 13:53:00,74.0,57.0,30.04,WSW,248,4.0,11.0,56,0.00,,,0.00,,2013-03-11 17:53:00,
2013-03-11 14:02:00,76.0,58.0,30.02,SSW,194,4.0,9.0,54,0.00,,,0.00,,2013-03-11 18:02:00,
2013-03-11 14:12:00,76.0,58.0,30.02,SSW,194,4.0,9.0,54,0.00,,,0.00,,2013-03-11 18:12:00,
2013-03-11 14:23:00,76.0,58.0,30.02,SSW,194,4.0,9.0,54,0.00,,,0.00,,2013-03-11 18:23:00,
2013-03-11 14:33:00,75.0,57.0,29.99,South,181,5.0,12.0,53,0.00,,,0.00,,2013-03-11 18:33:00,
2013-03-11 14:42:00,75.0,57.0,29.99,South,181,5.0,12.0,53,0.00,,,0.00,,2013-03-11 18:42:00,
2013-03-11 14:53:00,76.0,57.0,29.98,SE,124,4.0,8.0,52,0.00,,,0.00,,2013-03-11 18:53:00,
2013-03-11 15:02:00,76.0,58.0,29.97,SSW,203,3.0,10.0,54,0.00,,,0.00,,2013-03-11 19:02:00,
2013-03-11 15:13:00,76.0,58.0,29.97,SSW,203,3.0,10.0,54,0.00,,,0.00,,2013-03-11 19:13:00,
2013-03-11 15:23:00,75.0,57.0,29.97,SSE,154,3.0,8.0,54,0.00,,,0.00,,2013-03-11 19:23:00,
2013-03-11 15:33:00,75.0,57.0,29.96,SW,218,3.0,10.0,54,0.00,,,0.00,,2013-03-11 19:33:00,
2013-03-11 15:42:00,75.0,57.0,29.96,SW,218,3.0,10.0,54,0.00,,,0.00,,2013-03-11 19:42:00,
2013-03-11 15:53:00,75.0,57.0,29.96,SW,218,3.0,10.0,54,0.00,,,0.00,,2013-03-11 19:53:00,
2013-03-11 16:02:00,75.0,57.0,29.94,SSW,197,3.0,7.0,54,0.00,,,0.00,,2013-03-11 20:02:00,
2013-03-11 16:12:00,75.0,57.0,29.94,SSW,197,3.0,7.0,54,0.00,,,0.00,,2013-03-11 20:12:00,
2013-03-11 16:22:00,76.0,57.0,29.94,SSW,203,3.0,6.0,52,0.00,,,0.00,,2013-03-11 20:22:00,
2013-03-11 16:32:00,76.0,57.0,29.94,SSW,203,3.0,6.0,52,0.00,,,0.00,,2013-03-11 20:32:00,
2013-03-11 16:43:00,76.0,57.0,29.94,SSW,203,3.0,6.0,52,0.00,,,0.00,,2013-03-11 20:43:00,
2013-03-11 16:53:00,75.0,57.0,29.93,SSW,201,2.0,5.0,53,0.00,,,0.00,,2013-03-11 20:53:00,
2013-03-11 17:03:00,75.0,57.0,29.92,South,177,1.0,5.0,54,0.00,,,0.00,,2013-03-11 21:03:00,
2013-03-11 17:13:00,75.0,57.0,29.92,South,177,1.0,5.0,54,0.00,,,0.00,,2013-03-11 21:13:00,
2013-03-11 17:22:00,74.0,57.0,29.93,SW,214,1.0,6.0,55,0.00,,,0.00,,2013-03-11 21:22:00,
2013-03-11 17:32:00,75.0,58.0,29.92,SW,215,4.0,7.0,55,0.00,,,0.00,,2013-03-11 21:32:00,
2013-03-11 17:44:00,75.0,58.0,29.92,SW,215,4.0,7.0,55,0.00,,,0.00,,2013-03-11 21:44:00,
2013-03-11 17:53:00,75.0,57.0,29.92,SW,221,2.0,4.0,54,0.00,,,0.00,,2013-03-11 21:53:00,
2013-03-11 18:03:00,75.0,57.0,29.91,SSW,195,2.0,5.0,54,0.00,,,0.00,,2013-03-11 22:03:00,
2013-03-11 18:12:00,75.0,57.0,29.91,SSW,195,2.0,5.0,54,0.00,,,0.00,,2013-03-11 22:12:00,
2013-03-11 18:22:00,75.0,58.0,29.91,SW,224,2.0,4.0,55,0.00,,,0.00,,2013-03-11 22:22:00,
2013-03-11 18:32:00,74.0,58.0,29.91,SSW,201,1.0,4.0,57,0.00,,,0.00,,2013-03-11 22:32:00,
2013-03-11 18:43:00,74.0,58.0,29.91,SSW,201,1.0,4.0,57,0.00,,,0.00,,2013-03-11 22:43:00,
2013-03-11 18:53:00,74.0,58.0,29.91,SSW,201,1.0,4.0,57,0.00,,,0.00,,2013-03-11 22:53:00,
2013-03-11 19:03:00,74.0,58.0,29.90,SW,224,0.0,3.0,58,0.00,,,0.00,,2013-03-11 23:03:00,
2013-03-11 19:12:00,74.0,58.0,29.90,SW,224,0.0,3.0,58,0.00,,,0.00,,2013-03-11 23:12:00,
2013-03-11 19:22:00,72.0,58.0,29.90,WSW,256,0.0,1.0,61,0.00,,,0.00,,2013-03-11 23:22:00,
2013-03-11 19:32:00,72.0,58.0,29.90,SW,218,0.0,2.0,62,0.00,,,0.00,,2013-03-11 23:32:00,
2013-03-11 19:43:00,72.0,58.0,29.90,SW,218,0.0,2.0,62,0.00,,,0.00,,2013-03-11 23:43:00,
2013-03-11 19:54:00,71.0,58.0,29.89,ESE,105,0.0,2.0,63,0.00,,,0.00,,2013-03-11 23:54:00,
2013-03-11 20:02:00,70.0,58.0,29.89,ENE,73,0.0,1.0,66,0.00,,,0.00,,2013-03-12 00:02:00,
2013-03-11 20:12:00,70.0,58.0,29.89,ENE,73,0.0,1.0,66,0.00,,,0.00,,2013-03-12 00:12:00,
2013-03-11 20:23:00,69.0,59.0,29.89,SE,124,1.0,5.0,70,0.00,,,0.00,,2013-03-12 00:23:00,
2013-03-11 20:33:00,68.0,59.0,29.90,ESE,114,0.0,3.0,73,0.00,,,0.00,,2013-03-12 00:33:00,
2013-03-11 20:43:00,68.0,59.0,29.90,ESE,114,0.0,3.0,73,0.00,,,0.00,,2013-03-12 00:43:00,
2013-03-11 20:54:00,67.0,58.0,29.90,East,91,1.0,4.0,74,0.00,,,0.00,,2013-03-12 00:54:00,
2013-03-11 21:02:00,67.0,58.0,29.90,SW,215,0.0,2.0,74,0.00,,,0.00,,2013-03-12 01:02:00,
2013-03-11 21:12:00,67.0,58.0,29.90,SW,215,0.0,2.0,74,0.00,,,0.00,,2013-03-12 01:12:00,
2013-03-11 21:22:00,67.0,58.0,29.91,WSW,239,1.0,4.0,73,0.00,,,0.00,,2013-03-12 01:22:00,
2013-03-11 21:33:00,67.0,58.0,29.92,SSW,208,2.0,4.0,72,0.00,,,0.00,,2013-03-12 01:33:00,
2013-03-11 21:42:00,67.0,58.0,29.92,SSW,208,2.0,4.0,72,0.00,,,0.00,,2013-03-12 01:42:00,
2013-03-11 21:53:00,67.0,58.0,29.93,SSW,207,1.0,3.0,72,0.00,,,0.00,,2013-03-12 01:53:00,
2013-03-11 22:02:00,66.0,57.0,29.93,SSW,212,0.0,2.0,73,0.00,,,0.00,,2013-03-12 02:02:00,
2013-03-11 22:12:00,66.0,57.0,29.93,SSW,212,0.0,2.0,73,0.00,,,0.00,,2013-03-12 02:12:00,
2013-03-11 22:22:00,66.0,57.0,29.94,SSW,211,1.0,3.0,73,0.00,,,0.00,,2013-03-12 02:22:00,
2013-03-11 22:32:00,66.0,57.0,29.94,West,259,2.0,4.0,73,0.00,,,0.00,,2013-03-12 02:32:00,
2013-03-11 22:42:00,66.0,57.0,29.94,West,259,2.0,4.0,73,0.00,,,0.00,,2013-03-12 02:42:00,
2013-03-11 22:52:00,66.0,57.0,29.94,SW,233,1.0,3.0,74,0.00,,,0.00,,2013-03-12 02:52:00,
2013-03-11 23:02:00,66.0,57.0,29.95,SSW,201,1.0,2.0,74,0.00,,,0.00,,2013-03-12 03:02:00,
2013-03-11 23:12:00,66.0,57.0,29.95,SSW,201,1.0,2.0,74,0.00,,,0.00,,2013-03-12 03:12:00,
2013-03-11 23:22:00,66.0,58.0,29.93,West,274,1.0,2.0,76,0.00,,,0.00,,2013-03-12 03:22:00,
2013-03-11 23:32:00,65.0,58.0,29.93,SW,233,1.0,3.0,77,0.00,,,0.00,,2013-03-12 03:32:00,
2013-03-11 23:42:00,65.0,58.0,29.93,SW,233,1.0,3.0,77,0.00,,,0.00,,2013-03-12 03:42:00,
2013-03-11 23:53:00,65.0,58.0,29.91,SW,217,0.0,4.0,78,0.00,,,0.00,,2013-03-12 03:53:00,